| time (UTC) | temp F | wind direction | speed MPH | gust MPH | rain 1hr in | rain 24hr in | rain mn in | humidity % | barometer mb |
| 20260507003624 | 45 | 13 | 1.0 | 2.0 | 0.00 | 0.65 | 0.65 | 99 | 1010.2 |
| 20260507003119 | 45 | 2 | 1.0 | 1.0 | 0.00 | 0.65 | 0.65 | 99 | 1010.1 |
| 20260507002615 | 45 | 359 | 1.0 | 1.0 | 0.00 | 0.65 | 0.65 | 99 | 1010.1 |
| 20260507002111 | 45 | 341 | 0.0 | 0.0 | 0.00 | 0.65 | 0.65 | 99 | 1010.0 |
| 20260507001608 | 46 | 296 | 1.0 | 2.0 | 0.00 | 0.65 | 0.65 | 99 | 1009.8 |
| 20260507001106 | 46 | 351 | 1.0 | 1.0 | 0.00 | 0.65 | 0.65 | 99 | 1010.1 |
| 20260507000602 | 46 | 343 | 1.0 | 1.0 | 0.00 | 0.65 | 0.65 | 99 | 1010.0 |
| 20260507000057 | 46 | 320 | 1.0 | 2.0 | 0.00 | 0.65 | 0.65 | 99 | 1009.8 |
| 20260506235555 | 46 | 327 | 1.0 | 1.0 | 0.00 | 0.65 | 0.65 | 99 | 1009.8 |
| 20260506235050 | 46 | 337 | 2.0 | 2.0 | 0.00 | 0.65 | 0.65 | 99 | 1009.8 |
| 20260506234548 | 46 | 327 | 1.0 | 1.0 | 0.00 | 0.65 | 0.65 | 99 | 1009.6 |
| 20260506234045 | 46 | 320 | 1.0 | 1.0 | 0.00 | 0.65 | 0.65 | 99 | 1009.7 |
| 20260506233542 | 46 | 343 | 2.0 | 2.0 | 0.00 | 0.65 | 0.65 | 99 | 1009.8 |
| 20260506233038 | 46 | 13 | 1.0 | 1.0 | 0.00 | 0.65 | 0.65 | 99 | 1009.8 |
| 20260506232534 | 46 | 343 | 1.0 | 2.0 | 0.00 | 0.65 | 0.65 | 99 | 1009.6 |
| 20260506232030 | 46 | 344 | 1.0 | 1.0 | 0.00 | 0.65 | 0.65 | 99 | 1009.6 |
| 20260506231528 | 46 | 33 | 1.0 | 1.0 | 0.00 | 0.65 | 0.65 | 99 | 1009.4 |
| 20260506231026 | 46 | 347 | 1.0 | 2.0 | 0.00 | 0.65 | 0.65 | 99 | 1009.8 |
| 20260506230521 | 46 | 40 | 1.0 | 2.0 | 0.00 | 0.65 | 0.65 | 99 | 1009.3 |
| 20260506230020 | 46 | 230 | 2.0 | 3.0 | 0.00 | 0.65 | 0.65 | 99 | 1009.3 |
| 20260506225516 | 46 | 293 | 5.0 | 6.0 | 0.00 | 0.65 | 0.65 | 99 | 1008.8 |
| 20260506225007 | 46 | 281 | 5.0 | 6.0 | 0.00 | 0.65 | 0.65 | 99 | 1008.7 |
| 20260506224504 | 46 | 38 | 3.0 | 3.0 | 0.00 | 0.65 | 0.65 | 99 | 1008.7 |
| 20260506224001 | 47 | 305 | 2.0 | 2.0 | 0.00 | 0.65 | 0.65 | 99 | 1008.8 |
| 20260506223456 | 47 | 291 | 4.0 | 5.0 | 0.00 | 0.65 | 0.65 | 99 | 1008.7 |
| 20260506222954 | 48 | 291 | 5.0 | 6.0 | 0.00 | 0.65 | 0.65 | 99 | 1008.4 |
| 20260506222450 | 48 | 296 | 4.0 | 5.0 | 0.00 | 0.65 | 0.65 | 99 | 1008.4 |
| 20260506221947 | 48 | 295 | 5.0 | 6.0 | 0.00 | 0.65 | 0.65 | 99 | 1008.2 |
| 20260506221444 | 48 | 57 | 2.0 | 3.0 | 0.00 | 0.65 | 0.65 | 99 | 1008.1 |
| 20260506220942 | 49 | 298 | 2.0 | 2.0 | 0.00 | 0.65 | 0.65 | 99 | 1008.4 |
| 20260506220437 | 49 | 75 | 1.0 | 1.0 | 0.00 | 0.65 | 0.65 | 99 | 1008.1 |
| 20260506215933 | 49 | 312 | 3.0 | 5.0 | 0.05 | 0.65 | 0.65 | 99 | 1008.2 |
| 20260506215430 | 50 | 316 | 1.0 | 2.0 | 0.05 | 0.65 | 0.65 | 99 | 1008.0 |
| 20260506214925 | 50 | 324 | 1.0 | 2.0 | 0.00 | 0.64 | 0.64 | 99 | 1008.0 |
| 20260506214422 | 50 | 310 | 2.0 | 2.0 | 0.00 | 0.64 | 0.64 | 99 | 1007.7 |
| 20260506213920 | 50 | 310 | 1.0 | 2.0 | 0.00 | 0.64 | 0.64 | 99 | 1007.5 |
| 20260506213418 | 51 | 277 | 2.0 | 2.0 | 0.00 | 0.64 | 0.64 | 99 | 1007.3 |
| 20260506212915 | 51 | 241 | 2.0 | 2.0 | 0.00 | 0.64 | 0.64 | 99 | 1007.3 |
| 20260506212410 | 51 | 248 | 3.0 | 3.0 | 0.00 | 0.64 | 0.64 | 99 | 1007.1 |
| 20260506211905 | 51 | 213 | 3.0 | 3.0 | 0.00 | 0.64 | 0.64 | 99 | 1007.1 |
| 20260506211402 | 51 | 306 | 3.0 | 3.0 | 0.00 | 0.64 | 0.64 | 99 | 1006.9 |
| 20260506210859 | 52 | 263 | 4.0 | 5.0 | 0.00 | 0.64 | 0.64 | 99 | 1006.9 |
| 20260506210356 | 53 | 320 | 1.0 | 2.0 | 0.00 | 0.64 | 0.64 | 99 | 1006.8 |
| 20260506205853 | 53 | 318 | 3.0 | 3.0 | 0.07 | 0.64 | 0.64 | 99 | 1006.8 |
| 20260506205349 | 53 | 272 | 3.0 | 3.0 | 0.00 | 0.63 | 0.63 | 99 | 1006.3 |
| 20260506204846 | 58 | 328 | 4.0 | 6.0 | 0.00 | 0.63 | 0.63 | 99 | 1006.5 |
| 20260506204343 | 58 | 240 | 3.0 | 3.0 | 0.00 | 0.63 | 0.63 | 99 | 1005.9 |
| 20260506203841 | 58 | 296 | 2.0 | 2.0 | 0.00 | 0.63 | 0.63 | 99 | 1005.7 |
| 20260506203338 | 58 | 236 | 3.0 | 3.0 | 0.00 | 0.63 | 0.63 | 99 | 1005.9 |
| 20260506202834 | 58 | 270 | 3.0 | 3.0 | 0.00 | 0.63 | 0.63 | 99 | 1005.9 |
| 20260506202332 | 58 | 203 | 2.0 | 2.0 | 0.00 | 0.63 | 0.63 | 99 | 1005.7 |
| 20260506201828 | 58 | 255 | 3.0 | 3.0 | 0.00 | 0.63 | 0.63 | 99 | 1005.7 |
| 20260506201326 | 58 | 234 | 3.0 | 3.0 | 0.00 | 0.63 | 0.63 | 99 | 1006.0 |
| 20260506200822 | 58 | 187 | 4.0 | 5.0 | 0.00 | 0.63 | 0.63 | 99 | 1006.0 |
| 20260506200318 | 58 | 142 | 2.0 | 3.0 | 0.00 | 0.63 | 0.63 | 99 | 1005.9 |
| 20260506195814 | 57 | 229 | 4.0 | 8.0 | 0.00 | 0.63 | 0.63 | 99 | 1005.9 |
| 20260506195312 | 57 | 181 | 3.0 | 3.0 | 0.00 | 0.63 | 0.63 | 99 | 1006.4 |
| 20260506194809 | 57 | 272 | 2.0 | 2.0 | 0.00 | 0.63 | 0.63 | 99 | 1006.2 |
| 20260506194305 | 57 | 214 | 3.0 | 3.0 | 0.00 | 0.63 | 0.63 | 99 | 1006.6 |
| 20260506193803 | 57 | 237 | 3.0 | 3.0 | 0.00 | 0.63 | 0.63 | 99 | 1006.2 |
| 20260506193259 | 57 | 358 | 0.0 | 1.0 | 0.00 | 0.63 | 0.63 | 99 | 1006.4 |
| 20260506192755 | 57 | 185 | 5.0 | 5.0 | 0.00 | 0.63 | 0.63 | 99 | 1006.4 |
| 20260506192253 | 57 | 214 | 3.0 | 3.0 | 0.00 | 0.63 | 0.63 | 99 | 1006.4 |
| 20260506191749 | 57 | 201 | 3.0 | 3.0 | 0.00 | 0.63 | 0.63 | 99 | 1006.4 |
| 20260506191246 | 57 | 248 | 3.0 | 5.0 | 0.00 | 0.63 | 0.63 | 99 | 1006.2 |
| 20260506190743 | 57 | 269 | 4.0 | 6.0 | 0.00 | 0.63 | 0.63 | 99 | 1006.4 |
| 20260506190239 | 57 | 218 | 4.0 | 5.0 | 0.00 | 0.63 | 0.63 | 99 | 1006.2 |
| 20260506185737 | 57 | 260 | 4.0 | 6.0 | 0.00 | 0.63 | 0.63 | 99 | 1006.5 |
| 20260506185233 | 57 | 208 | 3.0 | 3.0 | 0.00 | 0.63 | 0.63 | 99 | 1006.3 |
| 20260506184730 | 57 | 198 | 2.0 | 2.0 | 0.00 | 0.63 | 0.63 | 99 | 1006.5 |
| 20260506184228 | 57 | 259 | 3.0 | 5.0 | 0.00 | 0.63 | 0.63 | 99 | 1006.5 |
| 20260506183725 | 57 | 201 | 3.0 | 3.0 | 0.00 | 0.63 | 0.63 | 99 | 1006.5 |
| 20260506183220 | 57 | 255 | 3.0 | 3.0 | 0.00 | 0.63 | 0.63 | 99 | 1006.7 |
| 20260506182718 | 57 | 190 | 1.0 | 2.0 | 0.00 | 0.63 | 0.63 | 99 | 1006.5 |
| 20260506182215 | 57 | 169 | 2.0 | 3.0 | 0.00 | 0.63 | 0.63 | 99 | 1006.6 |
| 20260506181713 | 57 | 216 | 2.0 | 2.0 | 0.00 | 0.63 | 0.63 | 99 | 1006.7 |
| 20260506181210 | 57 | 248 | 1.0 | 2.0 | 0.00 | 0.63 | 0.63 | 99 | 1006.6 |
| 20260506180707 | 57 | 21 | 2.0 | 2.0 | 0.00 | 0.63 | 0.63 | 99 | 1006.7 |
| 20260506180202 | 57 | 182 | 3.0 | 3.0 | 0.00 | 0.63 | 0.63 | 99 | 1006.5 |
| 20260506175659 | 57 | 305 | 1.0 | 1.0 | 0.00 | 0.63 | 0.63 | 99 | 1006.6 |
| 20260506175156 | 57 | 138 | 5.0 | 6.0 | 0.07 | 0.63 | 0.63 | 99 | 1006.6 |
| 20260506174654 | 57 | 338 | 1.0 | 1.0 | 0.07 | 0.63 | 0.63 | 99 | 1006.6 |
| 20260506174151 | 57 | 200 | 3.0 | 3.0 | 0.00 | 0.62 | 0.62 | 99 | 1006.6 |
| 20260506173649 | 57 | 304 | 2.0 | 2.0 | 0.00 | 0.62 | 0.62 | 99 | 1006.6 |
| 20260506173145 | 57 | 162 | 2.0 | 2.0 | 0.05 | 0.62 | 0.62 | 99 | 1006.9 |
| 20260506172642 | 57 | 3 | 1.0 | 1.0 | 0.05 | 0.62 | 0.62 | 99 | 1006.9 |
| 20260506172138 | 57 | 312 | 1.0 | 2.0 | 0.07 | 0.61 | 0.61 | 99 | 1006.9 |
| 20260506171631 | 57 | 234 | 2.0 | 2.0 | 0.12 | 0.61 | 0.61 | 99 | 1006.8 |
| 20260506171128 | 57 | 186 | 2.0 | 3.0 | 0.17 | 0.60 | 0.60 | 99 | 1006.9 |
| 20260506170625 | 57 | 315 | 1.0 | 1.0 | 0.12 | 0.59 | 0.59 | 99 | 1006.6 |
| 20260506170117 | 57 | 303 | 1.0 | 1.0 | 0.07 | 0.57 | 0.57 | 99 | 1006.9 |
| 20260506165615 | 57 | 294 | 1.0 | 1.0 | 0.12 | 0.57 | 0.57 | 99 | 1007.1 |
| 20260506165106 | 57 | 251 | 2.0 | 2.0 | 0.12 | 0.56 | 0.56 | 99 | 1007.2 |
| 20260506164603 | 57 | 264 | 1.0 | 2.0 | 0.12 | 0.55 | 0.55 | 99 | 1006.9 |
| 20260506164100 | 57 | 309 | 2.0 | 2.0 | 0.05 | 0.54 | 0.54 | 99 | 1006.9 |
| 20260506163555 | 57 | 261 | 1.0 | 2.0 | 0.00 | 0.53 | 0.53 | 99 | 1006.9 |
| 20260506163051 | 57 | 337 | 1.0 | 2.0 | 0.07 | 0.53 | 0.53 | 99 | 1006.9 |
| 20260506162547 | 57 | 83 | 1.0 | 1.0 | 0.12 | 0.53 | 0.53 | 99 | 1006.9 |
| 20260506162039 | 56 | 254 | 3.0 | 3.0 | 0.05 | 0.52 | 0.52 | 99 | 1007.0 |
| 20260506161536 | 56 | 215 | 2.0 | 3.0 | 0.14 | 0.51 | 0.51 | 99 | 1007.0 |
| 20260506161028 | 56 | 257 | 1.0 | 2.0 | 0.12 | 0.50 | 0.50 | 99 | 1007.2 |
| 20260506160526 | 56 | 316 | 1.0 | 1.0 | 0.12 | 0.49 | 0.49 | 99 | 1007.1 |
| 20260506160022 | 56 | 196 | 2.0 | 2.0 | 0.12 | 0.48 | 0.48 | 99 | 1007.2 |
| 20260506155520 | 56 | 227 | 3.0 | 3.0 | 0.17 | 0.47 | 0.47 | 99 | 1007.2 |
| 20260506153652 | 56 | 221 | 2.0 | 3.0 | 0.12 | 0.41 | 0.41 | 99 | 1007.4 |
| 20260506153149 | 56 | 302 | 1.0 | 2.0 | 0.12 | 0.39 | 0.39 | 99 | 1007.5 |
| 20260506152646 | 57 | 214 | 4.0 | 5.0 | 0.14 | 0.38 | 0.38 | 99 | 1007.5 |
| 20260506152143 | 56 | 226 | 2.0 | 2.0 | 0.12 | 0.37 | 0.37 | 99 | 1007.1 |
| 20260506151642 | 56 | 355 | 0.0 | 1.0 | 0.12 | 0.36 | 0.36 | 99 | 1007.2 |
| 20260506151138 | 56 | 9 | 0.0 | 1.0 | 0.12 | 0.35 | 0.35 | 99 | 1007.1 |
| 20260506150635 | 56 | 4 | 0.0 | 0.0 | 0.12 | 0.34 | 0.34 | 99 | 1007.5 |
| 20260506150132 | 56 | 307 | 1.0 | 1.0 | 0.07 | 0.33 | 0.33 | 99 | 1007.0 |
| 20260506145629 | 56 | 111 | 1.0 | 1.0 | 0.00 | 0.32 | 0.32 | 99 | 1007.5 |
| 20260506145126 | 56 | 267 | 1.0 | 1.0 | 0.05 | 0.32 | 0.32 | 99 | 1007.2 |
| 20260506144624 | 56 | 310 | 1.0 | 1.0 | 0.12 | 0.32 | 0.32 | 99 | 1007.2 |
| 20260506144120 | 56 | 122 | 1.0 | 1.0 | 0.19 | 0.31 | 0.31 | 99 | 1007.2 |
| 20260506143618 | 56 | 15 | 0.0 | 0.0 | 0.12 | 0.29 | 0.29 | 99 | 1007.3 |
| 20260506143116 | 56 | 341 | 1.0 | 1.0 | 0.05 | 0.28 | 0.28 | 99 | 1007.4 |
| 20260506142614 | 56 | 332 | 0.0 | 1.0 | 0.17 | 0.28 | 0.28 | 99 | 1007.3 |
| 20260506142112 | 56 | 141 | 1.0 | 2.0 | 0.26 | 0.27 | 0.27 | 99 | 1007.7 |
| 20260506141609 | 56 | 288 | 1.0 | 1.0 | 0.19 | 0.25 | 0.25 | 99 | 1007.5 |
| 20260506141107 | 56 | 326 | 1.0 | 1.0 | 0.12 | 0.23 | 0.23 | 99 | 1007.9 |
| 20260506140604 | 56 | 272 | 2.0 | 2.0 | 0.19 | 0.22 | 0.22 | 99 | 1007.8 |
| 20260506135558 | 56 | 10 | 0.0 | 1.0 | 0.12 | 0.19 | 0.19 | 99 | 1007.8 |
| 20260506135054 | 56 | 345 | 0.0 | 0.0 | 0.12 | 0.18 | 0.18 | 99 | 1007.9 |
| 20260506134551 | 56 | 320 | 1.0 | 1.0 | 0.17 | 0.17 | 0.17 | 99 | 1008.1 |
| 20260506134047 | 56 | 35 | 1.0 | 1.0 | 0.12 | 0.15 | 0.15 | 99 | 1008.1 |
| 20260506133544 | 55 | 213 | 2.0 | 2.0 | 0.19 | 0.14 | 0.14 | 99 | 1008.1 |
| 20260506133041 | 55 | 207 | 2.0 | 2.0 | 0.17 | 0.12 | 0.12 | 99 | 1008.4 |
| 20260506132539 | 55 | 321 | 1.0 | 1.0 | 0.19 | 0.11 | 0.11 | 99 | 1008.4 |
| 20260506132036 | 55 | 316 | 1.0 | 1.0 | 0.19 | 0.09 | 0.09 | 99 | 1008.6 |
| 20260506131533 | 55 | 343 | 0.0 | 1.0 | 0.17 | 0.08 | 0.08 | 99 | 1008.7 |
| 20260506131029 | 55 | 0 | 0.0 | 0.0 | 0.12 | 0.06 | 0.06 | 99 | 1008.6 |
| 20260506130526 | 55 | 352 | 0.0 | 0.0 | 0.12 | 0.05 | 0.05 | 99 | 1008.2 |
| 20260506130024 | 55 | 352 | 0.0 | 0.0 | 0.05 | 0.04 | 0.04 | 99 | 1008.4 |
| 20260506125522 | 55 | 349 | 0.0 | 0.0 | 0.00 | 0.03 | 0.03 | 99 | 1008.1 |
| 20260506125019 | 55 | 356 | 0.0 | 0.0 | 0.07 | 0.03 | 0.03 | 99 | 1007.9 |
| 20260506124517 | 55 | 2 | 0.0 | 0.0 | 0.07 | 0.03 | 0.03 | 99 | 1008.2 |
| 20260506124014 | 54 | 351 | 0.0 | 0.0 | 0.00 | 0.02 | 0.02 | 99 | 1007.7 |
| 20260506123512 | 54 | 352 | 0.0 | 0.0 | 0.00 | 0.02 | 0.02 | 99 | 1007.9 |
| 20260506123010 | 54 | 7 | 0.0 | 0.0 | 0.05 | 0.02 | 0.02 | 99 | 1007.9 |
| 20260506122506 | 54 | 354 | 0.0 | 0.0 | 0.05 | 0.02 | 0.02 | 99 | 1007.8 |
| 20260506122005 | 54 | 355 | 0.0 | 0.0 | 0.00 | 0.01 | 0.01 | 99 | 1007.9 |
| 20260506121502 | 54 | 2 | 0.0 | 0.0 | 0.00 | 0.01 | 0.01 | 99 | 1008.0 |
| 20260506120958 | 54 | 5 | 0.0 | 0.0 | 0.00 | 0.01 | 0.01 | 99 | 1008.2 |
| 20260506120456 | 54 | 349 | 0.0 | 0.0 | 0.00 | 0.01 | 0.01 | 99 | 1008.0 |
| 20260506115953 | 54 | 349 | 0.0 | 0.0 | 0.00 | 0.01 | 0.01 | 99 | 1008.1 |
| 20260506115451 | 54 | 357 | 0.0 | 0.0 | 0.00 | 0.01 | 0.01 | 99 | 1008.4 |
| 20260506114949 | 54 | 355 | 0.0 | 0.0 | 0.00 | 0.01 | 0.01 | 99 | 1007.9 |
| 20260506114446 | 54 | 0 | 0.0 | 0.0 | 0.00 | 0.01 | 0.01 | 99 | 1008.1 |
| 20260506113945 | 54 | 345 | 0.0 | 0.0 | 0.07 | 0.01 | 0.01 | 99 | 1008.4 |
| 20260506113442 | 53 | 5 | 0.0 | 0.0 | 0.07 | 0.01 | 0.01 | 99 | 1008.0 |
| 20260506112938 | 53 | 6 | 0.0 | 0.0 | 0.00 | 0.00 | 0.00 | 99 | 1008.0 |
| 20260506112436 | 53 | 4 | 0.0 | 0.0 | 0.00 | 0.00 | 0.00 | 99 | 1008.0 |
| 20260506111933 | 53 | 349 | 0.0 | 0.0 | 0.00 | 0.00 | 0.00 | 99 | 1008.1 |
| 20260506111431 | 53 | 349 | 0.0 | 0.0 | 0.00 | 0.00 | 0.00 | 99 | 1008.0 |
| 20260506110928 | 53 | 350 | 0.0 | 0.0 | 0.00 | 0.00 | 0.00 | 99 | 1008.0 |
| 20260506110426 | 53 | 348 | 0.0 | 0.0 | 0.00 | 0.00 | 0.00 | 99 | 1008.4 |
| 20260506105922 | 53 | 3 | 0.0 | 0.0 | 0.00 | 0.00 | 0.00 | 99 | 1008.1 |
| 20260506105418 | 53 | 356 | 0.0 | 0.0 | 0.00 | 0.00 | 0.00 | 99 | 1008.0 |
| 20260506104916 | 53 | 357 | 0.0 | 0.0 | 0.00 | 0.00 | 0.00 | 99 | 1007.5 |
| 20260506104414 | 53 | 3 | 1.0 | 1.0 | 0.00 | 0.00 | 0.00 | 99 | 1007.9 |
| 20260506103912 | 53 | 6 | 1.0 | 2.0 | 0.00 | 0.00 | 0.00 | 99 | 1007.8 |
| 20260506103409 | 53 | 8 | 1.0 | 2.0 | 0.00 | 0.00 | 0.00 | 99 | 1007.9 |
| 20260506102906 | 54 | 9 | 1.0 | 1.0 | 0.00 | 0.00 | 0.00 | 99 | 1007.8 |
| 20260506102404 | 54 | 8 | 0.0 | 0.0 | 0.00 | 0.00 | 0.00 | 98 | 1007.9 |
| 20260506101901 | 54 | 10 | 1.0 | 1.0 | 0.00 | 0.00 | 0.00 | 97 | 1007.4 |
| 20260506101356 | 54 | 9 | 0.0 | 1.0 | 0.00 | 0.00 | 0.00 | 95 | 1007.7 |
| 20260506100854 | 54 | 10 | 1.0 | 1.0 | 0.00 | 0.00 | 0.00 | 92 | 1007.9 |
| 20260506100353 | 54 | 7 | 0.0 | 1.0 | 0.00 | 0.00 | 0.00 | 92 | 1007.9 |
| 20260506095850 | 55 | 6 | 1.0 | 1.0 | 0.00 | 0.00 | 0.00 | 89 | 1008.0 |
| 20260506095348 | 55 | 6 | 0.0 | 0.0 | 0.00 | 0.00 | 0.00 | 87 | 1007.8 |
| 20260506094844 | 54 | 3 | 1.0 | 1.0 | 0.00 | 0.00 | 0.00 | 88 | 1007.8 |
| 20260506094343 | 54 | 1 | 0.0 | 0.0 | 0.00 | 0.00 | 0.00 | 89 | 1007.4 |
| 20260506093841 | 54 | 3 | 1.0 | 1.0 | 0.00 | 0.00 | 0.00 | 88 | 1007.6 |
| 20260506093338 | 54 | 2 | 1.0 | 1.0 | 0.00 | 0.00 | 0.00 | 90 | 1007.5 |
| 20260506092835 | 54 | 6 | 0.0 | 1.0 | 0.00 | 0.00 | 0.00 | 92 | 1007.3 |
| 20260506092333 | 54 | 2 | 0.0 | 0.0 | 0.00 | 0.00 | 0.00 | 90 | 1007.5 |
| 20260506091830 | 54 | 357 | 0.0 | 0.0 | 0.00 | 0.00 | 0.00 | 92 | 1007.8 |
| 20260506091328 | 54 | 6 | 0.0 | 0.0 | 0.00 | 0.00 | 0.00 | 92 | 1007.6 |
| 20260506090825 | 54 | 7 | 0.0 | 0.0 | 0.00 | 0.00 | 0.00 | 91 | 1007.6 |
| 20260506090322 | 53 | 6 | 0.0 | 1.0 | 0.00 | 0.00 | 0.00 | 93 | 1007.6 |
| 20260506085819 | 53 | 6 | 1.0 | 1.0 | 0.00 | 0.00 | 0.00 | 95 | 1007.8 |
| 20260506085315 | 53 | 356 | 1.0 | 1.0 | 0.00 | 0.00 | 0.00 | 96 | 1008.0 |
| 20260506084812 | 53 | 355 | 0.0 | 0.0 | 0.00 | 0.00 | 0.00 | 96 | 1008.0 |
| 20260506084308 | 54 | 356 | 0.0 | 0.0 | 0.00 | 0.00 | 0.00 | 96 | 1008.1 |
| 20260506083805 | 53 | 354 | 0.0 | 0.0 | 0.00 | 0.00 | 0.00 | 96 | 1008.0 |
| 20260506083303 | 53 | 354 | 0.0 | 0.0 | 0.00 | 0.00 | 0.00 | 96 | 1007.7 |
| 20260506082800 | 53 | 354 | 0.0 | 0.0 | 0.00 | 0.00 | 0.00 | 96 | 1007.8 |
| 20260506082256 | 53 | 6 | 0.0 | 0.0 | 0.00 | 0.00 | 0.00 | 96 | 1008.0 |
| 20260506081753 | 53 | 0 | 0.0 | 0.0 | 0.00 | 0.00 | 0.00 | 96 | 1007.6 |
| 20260506081251 | 53 | 2 | 1.0 | 1.0 | 0.00 | 0.00 | 0.00 | 97 | 1007.7 |
| 20260506080749 | 53 | 11 | 1.0 | 1.0 | 0.00 | 0.00 | 0.00 | 98 | 1007.9 |
| 20260506080244 | 53 | 349 | 0.0 | 0.0 | 0.00 | 0.00 | 0.00 | 98 | 1008.0 |
| 20260506073229 | 52 | 351 | 0.0 | 0.0 | 0.00 | 0.00 | 0.00 | 98 | 1008.2 |
| 20260506072725 | 52 | 351 | 0.0 | 1.0 | 0.00 | 0.00 | 0.00 | 98 | 1008.0 |
| 20260506072223 | 52 | 349 | 0.0 | 0.0 | 0.00 | 0.00 | 0.00 | 98 | 1008.4 |
| 20260506071721 | 52 | 349 | 0.0 | 0.0 | 0.00 | 0.00 | 0.00 | 98 | 1008.1 |
| 20260506071218 | 52 | 349 | 0.0 | 0.0 | 0.00 | 0.00 | 0.00 | 98 | 1008.2 |
| 20260506070715 | 51 | 349 | 0.0 | 0.0 | 0.00 | 0.00 | 0.00 | 98 | 1008.2 |
| 20260506070212 | 51 | 347 | 0.0 | 1.0 | 0.00 | 0.00 | 0.00 | 98 | 1008.5 |
| 20260506062149 | 51 | 358 | 0.0 | 0.0 | 0.00 | 0.00 | 0.00 | 97 | 1008.7 |
| 20260506061645 | 51 | 10 | 1.0 | 1.0 | 0.00 | 0.00 | 0.00 | 97 | 1008.8 |
| 20260506061143 | 52 | 351 | 0.0 | 1.0 | 0.00 | 0.00 | 0.00 | 95 | 1008.7 |
| 20260506060641 | 52 | 352 | 1.0 | 1.0 | 0.00 | 0.00 | 0.00 | 95 | 1008.8 |
| 20260506060138 | 52 | 351 | 0.0 | 0.0 | 0.00 | 0.00 | 0.00 | 95 | 1008.9 |
| 20260506051110 | 52 | 6 | 1.0 | 1.0 | 0.00 | 0.00 | 0.00 | 93 | 1009.2 |
| 20260506050608 | 52 | 5 | 1.0 | 1.0 | 0.00 | 0.00 | 0.00 | 93 | 1009.4 |
| 20260506050105 | 53 | 359 | 0.0 | 0.0 | 0.00 | 0.00 | 0.00 | 92 | 1009.1 |
| 20260506045058 | 53 | 354 | 0.0 | 0.0 | 0.00 | 0.00 | 0.00 | 91 | 1009.0 |
| 20260506044556 | 53 | 354 | 0.0 | 0.0 | 0.00 | 0.00 | 0.00 | 90 | 1009.0 |
| 20260506044052 | 54 | 5 | 0.0 | 0.0 | 0.00 | 0.00 | 0.00 | 89 | 1008.9 |
| 20260506043549 | 54 | 6 | 1.0 | 1.0 | 0.00 | 0.00 | 0.00 | 89 | 1009.2 |
| 20260506043048 | 53 | 5 | 0.0 | 1.0 | 0.00 | 0.00 | 0.00 | 90 | 1009.2 |
| 20260506042547 | 53 | 350 | 1.0 | 1.0 | 0.00 | 0.00 | 0.00 | 91 | 1009.4 |
| 20260506042044 | 53 | 349 | 1.0 | 1.0 | 0.00 | 0.00 | 0.00 | 90 | 1009.3 |
| 20260506041543 | 54 | 2 | 0.0 | 0.0 | 0.00 | 0.00 | 0.00 | 90 | 1009.2 |
| 20260506041039 | 54 | 2 | 0.0 | 0.0 | 0.00 | 0.00 | 0.00 | 89 | 1009.3 |
| 20260506040537 | 54 | 356 | 1.0 | 1.0 | 0.00 | 0.00 | 0.00 | 90 | 1009.1 |
| 20260506040032 | 54 | 2 | 1.0 | 1.0 | 0.00 | 0.00 | 0.00 | 88 | 1009.4 |
| 20260506035530 | 53 | 3 | 0.0 | 1.0 | 0.00 | 0.00 | 0.00 | 90 | 1009.2 |
| 20260506035026 | 54 | 355 | 0.0 | 1.0 | 0.00 | 0.00 | 0.00 | 89 | 1009.2 |
| 20260506034524 | 55 | 2 | 0.0 | 0.0 | 0.00 | 0.00 | 0.00 | 87 | 1009.3 |
| 20260506034021 | 55 | 359 | 0.0 | 1.0 | 0.00 | 0.00 | 0.00 | 88 | 1009.2 |
| 20260506033518 | 55 | 359 | 0.0 | 1.0 | 0.00 | 0.00 | 0.00 | 87 | 1009.2 |
| 20260506033015 | 55 | 359 | 0.0 | 1.0 | 0.00 | 0.00 | 0.00 | 88 | 1009.3 |
| 20260506032513 | 55 | 357 | 1.0 | 1.0 | 0.00 | 0.00 | 0.00 | 87 | 1009.3 |
| 20260506032009 | 56 | 359 | 1.0 | 1.0 | 0.00 | 0.00 | 0.00 | 85 | 1009.2 |
| 20260506031507 | 56 | 358 | 1.0 | 1.0 | 0.00 | 0.00 | 0.00 | 86 | 1009.2 |
| 20260506031003 | 56 | 356 | 1.0 | 1.0 | 0.00 | 0.00 | 0.00 | 86 | 1009.1 |
| 20260506030502 | 56 | 355 | 0.0 | 1.0 | 0.00 | 0.00 | 0.00 | 85 | 1009.1 |
| 20260506025958 | 57 | 3 | 0.0 | 0.0 | 0.00 | 0.00 | 0.00 | 85 | 1009.0 |
| 20260506025455 | 57 | 3 | 0.0 | 0.0 | 0.00 | 0.00 | 0.00 | 86 | 1009.1 |
| 20260506024952 | 58 | 3 | 0.0 | 1.0 | 0.00 | 0.00 | 0.00 | 86 | 1009.0 |
| 20260506024448 | 58 | 3 | 0.0 | 1.0 | 0.00 | 0.00 | 0.00 | 84 | 1009.1 |
| 20260506023944 | 58 | 2 | 1.0 | 1.0 | 0.00 | 0.00 | 0.00 | 85 | 1009.0 |
| 20260506023441 | 59 | 2 | 1.0 | 1.0 | 0.00 | 0.00 | 0.00 | 85 | 1009.1 |
| 20260506022938 | 59 | 3 | 1.0 | 1.0 | 0.00 | 0.00 | 0.00 | 82 | 1009.1 |
| 20260506022436 | 59 | 3 | 0.0 | 0.0 | 0.00 | 0.00 | 0.00 | 81 | 1009.4 |
| 20260506021934 | 60 | 3 | 1.0 | 1.0 | 0.00 | 0.00 | 0.00 | 82 | 1009.3 |
| 20260506021430 | 60 | 3 | 0.0 | 0.0 | 0.00 | 0.00 | 0.00 | 78 | 1009.4 |
| 20260506020927 | 60 | 1 | 0.0 | 0.0 | 0.00 | 0.00 | 0.00 | 80 | 1009.2 |
| 20260506020425 | 60 | 351 | 0.0 | 0.0 | 0.00 | 0.00 | 0.00 | 80 | 1009.1 |
| 20260506015922 | 60 | 352 | 1.0 | 1.0 | 0.00 | 0.00 | 0.00 | 79 | 1009.0 |
| 20260506015420 | 61 | 354 | 1.0 | 1.0 | 0.00 | 0.00 | 0.00 | 79 | 1008.9 |
| 20260506014916 | 61 | 1 | 0.0 | 0.0 | 0.00 | 0.00 | 0.00 | 77 | 1009.0 |
| 20260506014414 | 61 | 358 | 1.0 | 1.0 | 0.00 | 0.00 | 0.00 | 77 | 1008.9 |
| 20260506013910 | 60 | 358 | 0.0 | 0.0 | 0.00 | 0.00 | 0.00 | 78 | 1009.1 |
| 20260506013408 | 61 | 357 | 0.0 | 0.0 | 0.00 | 0.00 | 0.00 | 79 | 1009.0 |
| 20260506012904 | 61 | 2 | 0.0 | 0.0 | 0.00 | 0.00 | 0.00 | 77 | 1008.9 |
| 20260506012401 | 61 | 1 | 1.0 | 1.0 | 0.00 | 0.00 | 0.00 | 80 | 1008.6 |
| 20260506011857 | 62 | 1 | 1.0 | 1.0 | 0.00 | 0.00 | 0.00 | 76 | 1008.6 |
| 20260506011354 | 62 | 2 | 0.0 | 1.0 | 0.00 | 0.00 | 0.00 | 76 | 1008.7 |
| 20260506010851 | 62 | 1 | 1.0 | 1.0 | 0.00 | 0.00 | 0.00 | 76 | 1008.7 |
| 20260506010350 | 63 | 1 | 0.0 | 1.0 | 0.00 | 0.00 | 0.00 | 76 | 1008.6 |